Regional Weather Roundup
Issued by NWS

Home | Current Version | Previous Version | Graphics & Text | Print | Product List | Glossary On
Versions: 1 2 3 4 5 6 7 8 9 10 11 12 13 14 15 16 17 18 19 20 21 22 23 24 25 26 27 28 29 30 31 32 33 34 35 36 37 38 39 40 41 42 43 44 45 46 47 48 49 50
000
ASUS43 KLMK 301110
RWRKY
KENTUCKY REGIONAL WEATHER ROUNDUP
NATIONAL WEATHER SERVICE LOUISVILLE KY
700 AM EDT FRI SEP 30 2016

NOTE "FAIR" INDICATES FEW OR NO CLOUDS BELOW 12,000 FEET
WITH NO SIGNIFICANT WEATHER AND/OR OBSTRUCTIONS TO VISIBILITY.

KYZ001>023-026-027-061>063-070>075-301200-
WESTERN AND SOUTH CENTRAL KENTUCKY

CITY           SKY/WX    TMP DP  RH WIND       PRES   REMARKS
PADUCAH        CLOUDY    60  56  86 W5        30.06S
HENDERSON      CLOUDY    55  52  88 W5        30.02S
OWENSBORO      TSTM     N/A N/A N/A N9        30.10  FOG
HOPKINSVILLE   CLOUDY    56  55  95 W5        30.04S
BOWLING GREEN  FOG       51  51 100 CALM      30.04R VSB 1/4
GLASGOW        FOG       51  51 100 CALM      30.04S VSB 1/4
$$

KYZ024-025-028>034-038-045-046-053-301200-
NORTH CENTRAL KENTUCKY

CITY           SKY/WX    TMP DP  RH WIND       PRES   REMARKS
LOUISVILLE/SDF CLOUDY    56  53  90 E3        30.02S FOG
LOUISVILLE/LOU CLOUDY    55  53  93 CALM      30.03F FOG
FORT KNOX      CLOUDY    53  53  99 E2        30.01S
$$

KYZ035>037-039>044-047>052-055>060-089>105-301200-
NORTHEAST KENTUCKY

CITY           SKY/WX    TMP DP  RH WIND       PRES   REMARKS
LEXINGTON      CLOUDY    55  52  89 CALM      30.03R
COVINGTON      MOCLDY    58  56  93 CALM      30.02F
FRANKFORT      FOG       55  52  89 CALM      30.02S VSB 1/4
$$

KYZ054-064>069-076>088-106>120-301200-
SOUTHEAST KENTUCKY

CITY           SKY/WX    TMP DP  RH WIND       PRES   REMARKS
JACKSON        FOG       53  52  96 CALM      30.04R VSB 1/4
LONDON         FOG       50  48  93 CALM      30.05R VSB 1/4
SOMERSET       CLOUDY    50  50 100 W3        30.06S FOG
MIDDLESBORO    CLOUDY    51  50  97 CALM      30.06R
MONTICELLO     CLOUDY    51  51 100 NW9       30.07S
$$




USA.gov is the U.S. government's official web portal to all federal, state and local government web resources and services.